GW1010 Weather Reports


Display with metric or nautical units.
time (UTC)temp
F
wind
direction
speed
MPH
gust
MPH
rain 1hr
in
rain 24hr
in
rain mn
in
humidity
%
barometer
mb
20260905222530 83 280 2.0 7.0 0.00 0.00 0.00 42 1014.2
20260905222027 83 88 3.0 7.0 0.00 0.00 0.00 42 1014.3
20260905221606 83 98 2.0 6.0 0.00 0.00 0.00 42 1014.3
20260905221027 83 221 2.0 8.0 0.00 0.00 0.00 41 1014.4
20260905220529 83 210 2.0 8.0 0.00 0.00 0.00 42 1014.3
20260905220046 84 278 1.0 6.0 0.00 0.00 0.00 41 1014.3
20260905215531 84 231 1.0 7.0 0.00 0.00 0.00 41 1014.4
20260905215027 83 16 1.0 8.0 0.00 0.00 0.00 43 1014.3
20260905214542 83 257 3.0 8.0 0.00 0.00 0.00 42 1014.4
20260905214029 83 232 2.0 8.0 0.00 0.00 0.00 42 1014.4
20260905213528 84 291 3.0 8.0 0.00 0.00 0.00 42 1014.3
20260905213101 84 264 2.0 7.0 0.00 0.00 0.00 41 1014.4
20260905212530 84 115 2.0 7.0 0.00 0.00 0.00 42 1014.4
20260905212028 84 262 3.0 7.0 0.00 0.00 0.00 42 1014.4
20260905211546 84 243 2.0 7.0 0.00 0.00 0.00 43 1014.4
20260905211030 84 124 2.0 7.0 0.00 0.00 0.00 43 1014.4
20260905210529 84 228 3.0 6.0 0.00 0.00 0.00 43 1014.4
20260905210058 84 124 2.0 5.0 0.00 0.00 0.00 42 1014.4
20260905205528 84 240 1.0 7.0 0.00 0.00 0.00 44 1014.4
20260905205033 84 160 2.0 7.0 0.00 0.00 0.00 43 1014.4
20260905204553 84 260 3.0 10.0 0.00 0.00 0.00 43 1014.4
20260905204029 84 276 3.0 10.0 0.00 0.00 0.00 43 1014.4
20260905203528 85 160 3.0 10.0 0.00 0.00 0.00 42 1014.5
20260905203054 85 179 3.0 7.0 0.00 0.00 0.00 42 1014.5
20260905202527 84 71 2.0 7.0 0.00 0.00 0.00 42 1014.5
20260905202026 84 96 3.0 7.0 0.00 0.00 0.00 43 1014.5
20260905201558 84 0 1.0 5.0 0.00 0.00 0.00 43 1014.5
20260905201028 84 193 3.0 7.0 0.00 0.00 0.00 42 1014.6
20260905200530 84 266 3.0 7.0 0.00 0.00 0.00 42 1014.6
20260905200054 84 353 1.0 8.0 0.00 0.00 0.00 42 1014.7
20260905195532 84 217 3.0 8.0 0.00 0.00 0.00 43 1014.6
20260905195029 84 282 2.0 7.0 0.00 0.00 0.00 43 1014.7
20260905194550 83 84 2.0 8.0 0.00 0.00 0.00 42 1014.7
20260905194028 83 99 3.0 8.0 0.00 0.00 0.00 43 1014.7
20260905193532 83 143 2.0 6.0 0.00 0.00 0.00 43 1014.7
20260905193054 83 134 2.0 6.0 0.00 0.00 0.00 44 1014.8
20260905192527 83 221 3.0 6.0 0.00 0.00 0.00 44 1014.8
20260905192028 83 132 1.0 6.0 0.00 0.00 0.00 43 1014.8
20260905191543 83 129 3.0 6.0 0.00 0.00 0.00 43 1014.8
20260905191026 83 246 2.0 6.0 0.00 0.00 0.00 43 1014.9
20260905190525 82 117 2.0 6.0 0.00 0.00 0.00 43 1014.8
20260905190053 81 82 1.0 6.0 0.00 0.00 0.00 45 1015.0
20260905185526 81 126 3.0 6.0 0.00 0.00 0.00 45 1015.0
20260905185026 81 120 0.0 5.0 0.00 0.00 0.00 44 1015.0
20260905184556 81 109 1.0 6.0 0.00 0.00 0.00 44 1015.1
20260905184028 80 113 2.0 6.0 0.00 0.00 0.00 45 1015.1
20260905183527 80 113 1.0 4.0 0.00 0.00 0.00 42 1015.2
20260905183045 79 116 1.0 2.0 0.00 0.00 0.00 44 1015.2
20260905182531 79 0 1.0 3.0 0.00 0.00 0.00 42 1015.4
20260905182026 78 57 1.0 3.0 0.00 0.00 0.00 42 1015.3
20260905181601 79 106 1.0 3.0 0.00 0.00 0.00 42 1015.4
20260905181029 78 239 0.0 3.0 0.00 0.00 0.00 44 1015.3
20260905180526 78 137 1.0 3.0 0.00 0.00 0.00 43 1015.4
20260905180053 77 0 0.0 2.0 0.00 0.00 0.00 45 1015.4
20260905175532 76 214 1.0 2.0 0.00 0.00 0.00 44 1015.4
20260905175029 75 0 0.0 4.0 0.00 0.00 0.00 47 1015.5
20260905174549 75 249 0.0 4.0 0.00 0.00 0.00 46 1015.5
20260905174027 75 322 0.0 4.0 0.00 0.00 0.00 46 1015.5
20260905173527 75 0 0.0 2.0 0.00 0.00 0.00 47 1015.5
20260905173043 74 254 1.0 2.0 0.00 0.00 0.00 46 1015.5
20260905172529 73 0 0.0 2.0 0.00 0.00 0.00 49 1015.5
20260905172027 72 266 0.0 4.0 0.00 0.00 0.00 50 1015.5
20260905171543 72 0 1.0 4.0 0.00 0.00 0.00 51 1015.5
20260905171029 71 233 0.0 4.0 0.00 0.00 0.00 53 1015.5
20260905170526 71 281 1.0 3.0 0.00 0.00 0.00 51 1015.5
20260905170054 70 252 1.0 3.0 0.00 0.00 0.00 53 1015.4
20260905165526 69 0 0.0 4.0 0.00 0.00 0.00 56 1015.5
20260905165029 68 236 0.0 4.0 0.00 0.00 0.00 55 1015.6
20260905164550 67 306 1.0 4.0 0.00 0.00 0.00 54 1015.6
20260905164029 67 0 1.0 3.0 0.00 0.00 0.00 58 1015.6
20260905163527 66 319 0.0 2.0 0.00 0.00 0.00 58 1015.6
20260905163045 66 283 1.0 4.0 0.00 0.00 0.00 58 1015.6
20260905162533 65 0 0.0 4.0 0.00 0.00 0.00 61 1015.6
20260905162034 64 0 1.0 4.0 0.00 0.00 0.00 61 1015.6
20260905161602 63 239 0.0 0.0 0.00 0.00 0.00 66 1015.6
20260905161031 62 0 0.0 3.0 0.00 0.00 0.00 68 1015.7
20260905160526 61 0 0.0 3.0 0.00 0.00 0.00 70 1015.7
20260905160052 61 243 0.0 3.0 0.00 0.00 0.00 71 1015.8
20260905155529 60 330 0.0 3.0 0.00 0.00 0.00 71 1015.7
20260905155026 59 340 0.0 2.0 0.00 0.00 0.00 73 1015.8
20260905154545 59 0 0.0 0.0 0.00 0.00 0.00 73 1015.7
20260905154027 58 0 0.0 0.0 0.00 0.00 0.00 76 1015.7
20260905153527 58 0 0.0 0.0 0.00 0.00 0.00 76 1015.6
20260905153048 58 0 0.0 0.0 0.00 0.00 0.00 80 1015.7
20260905152526 57 0 0.0 0.0 0.00 0.00 0.00 83 1015.6
20260905152027 56 0 0.0 0.0 0.00 0.00 0.00 84 1015.7
20260905151602 56 0 0.0 0.0 0.00 0.00 0.00 85 1015.6
20260905151031 55 0 0.0 0.0 0.00 0.00 0.00 85 1015.6
20260905150530 55 0 0.0 0.0 0.00 0.00 0.00 87 1015.6
20260905150051 54 0 0.0 0.0 0.00 0.00 0.00 88 1015.6
20260905145527 53 0 0.0 0.0 0.00 0.00 0.00 89 1015.6
20260905145026 53 0 0.0 0.0 0.00 0.00 0.00 90 1015.6
20260905144548 52 0 0.0 0.0 0.00 0.00 0.00 90 1015.6
20260905144032 52 0 0.0 0.0 0.00 0.00 0.00 90 1015.4
20260905143528 51 0 0.0 0.0 0.00 0.00 0.00 91 1015.3
20260905143044 51 0 0.0 0.0 0.00 0.00 0.00 91 1015.3
20260905142528 50 0 0.0 0.0 0.00 0.00 0.00 92 1015.2
20260905142026 50 0 0.0 0.0 0.00 0.00 0.00 91 1015.1
20260905141557 50 0 0.0 0.0 0.00 0.00 0.00 92 1015.1
20260905141026 50 0 0.0 0.0 0.00 0.00 0.00 92 1015.0
20260905140527 50 0 0.0 0.0 0.00 0.00 0.00 93 1015.1
20260905140054 50 0 0.0 0.0 0.00 0.00 0.00 93 1015.0
20260905135530 50 0 0.0 0.0 0.00 0.00 0.00 92 1015.0
20260905135039 50 0 0.0 0.0 0.00 0.00 0.00 92 1015.0
20260905134548 50 0 0.0 0.0 0.00 0.00 0.00 92 1015.0
20260905134027 50 0 0.0 0.0 0.00 0.00 0.00 92 1015.0
20260905133530 50 0 0.0 0.0 0.00 0.00 0.00 91 1015.0
20260905133055 50 0 0.0 0.0 0.00 0.00 0.00 91 1015.0
20260905132530 50 0 0.0 0.0 0.00 0.00 0.00 91 1015.0
20260905132027 50 0 0.0 0.0 0.00 0.00 0.00 91 1014.9
20260905131558 51 0 0.0 0.0 0.00 0.00 0.00 91 1014.9
20260905131031 51 0 0.0 0.0 0.00 0.00 0.00 91 1014.9
20260905130528 51 0 0.0 0.0 0.00 0.00 0.00 91 1014.9
20260905130054 51 0 0.0 0.0 0.00 0.00 0.00 91 1014.9
20260905125526 51 0 0.0 0.0 0.00 0.00 0.00 90 1014.8
20260905125027 51 0 0.0 0.0 0.00 0.00 0.00 90 1014.8
20260905124601 52 0 0.0 0.0 0.00 0.00 0.00 90 1014.8
20260905124033 52 0 0.0 0.0 0.00 0.00 0.00 91 1014.8
20260905123527 52 0 0.0 0.0 0.00 0.00 0.00 91 1014.8
20260905123045 53 0 0.0 0.0 0.00 0.00 0.00 91 1014.9
20260905122530 53 0 0.0 0.0 0.00 0.00 0.00 90 1014.8
20260905122030 53 0 0.0 0.0 0.00 0.00 0.00 90 1014.8
20260905121555 53 0 0.0 0.0 0.00 0.00 0.00 90 1014.7
20260905121028 54 0 0.0 0.0 0.00 0.00 0.00 90 1014.7
20260905120527 54 0 0.0 0.0 0.00 0.00 0.00 89 1014.8
20260905120053 54 0 0.0 0.0 0.00 0.00 0.00 90 1014.7
20260905115530 54 0 0.0 0.0 0.00 0.00 0.00 89 1014.7
20260905115028 55 0 0.0 0.0 0.00 0.00 0.00 89 1014.7
20260905114551 55 0 0.0 0.0 0.00 0.00 0.00 89 1014.7
20260905114027 55 0 0.0 0.0 0.00 0.00 0.00 89 1014.7
20260905113527 55 0 0.0 0.0 0.00 0.00 0.00 88 1014.7
20260905113046 55 0 0.0 0.0 0.00 0.00 0.00 88 1014.7
20260905112526 55 0 0.0 0.0 0.00 0.00 0.00 89 1014.7
20260905112030 55 0 0.0 0.0 0.00 0.00 0.00 88 1014.7
20260905111550 55 0 0.0 0.0 0.00 0.00 0.00 88 1014.7
20260905111026 55 0 0.0 0.0 0.00 0.00 0.00 88 1014.8
20260905110527 55 0 0.0 0.0 0.00 0.00 0.00 88 1014.8
20260905110042 56 0 0.0 0.0 0.00 0.00 0.00 87 1014.8
20260905105533 56 0 0.0 0.0 0.00 0.00 0.00 88 1014.6
20260905105027 56 0 0.0 0.0 0.00 0.00 0.00 89 1014.7
20260905104611 56 0 0.0 0.0 0.00 0.00 0.00 89 1014.7
20260905104028 56 0 0.0 0.0 0.00 0.00 0.00 89 1014.7
20260905103528 56 0 0.0 0.0 0.00 0.00 0.00 90 1014.6
20260905103049 56 0 0.0 0.0 0.00 0.00 0.00 88 1014.6
20260905102528 56 0 0.0 0.0 0.00 0.00 0.00 87 1014.6
20260905102026 57 0 0.0 0.0 0.00 0.00 0.00 87 1014.7
20260905101545 57 0 0.0 0.0 0.00 0.00 0.00 87 1014.8
20260905101031 57 0 0.0 0.0 0.00 0.00 0.00 87 1014.8
20260905100529 58 0 0.0 0.0 0.00 0.00 0.00 88 1014.8
20260905100044 58 0 0.0 0.0 0.00 0.00 0.00 87 1014.8
20260905095529 58 0 0.0 0.0 0.00 0.00 0.00 86 1014.8
20260905095033 58 0 0.0 0.0 0.00 0.00 0.00 86 1014.8
20260905094549 58 0 0.0 0.0 0.00 0.00 0.00 86 1014.8
20260905094031 58 0 0.0 0.0 0.00 0.00 0.00 85 1014.9
20260905093530 58 0 0.0 0.0 0.00 0.00 0.00 85 1014.9
20260905093049 58 0 0.0 0.0 0.00 0.00 0.00 85 1014.9
20260905092530 58 0 0.0 0.0 0.00 0.00 0.00 85 1014.9
20260905092029 59 0 0.0 0.0 0.00 0.00 0.00 85 1014.9
20260905091604 59 0 0.0 0.0 0.00 0.00 0.00 86 1014.9
20260905091029 59 0 0.0 0.0 0.00 0.00 0.00 86 1015.0
20260905090527 59 0 0.0 0.0 0.00 0.00 0.00 86 1015.0
20260905090056 59 0 0.0 0.0 0.00 0.00 0.00 87 1015.0
20260905085527 59 0 0.0 0.0 0.00 0.00 0.00 87 1014.9
20260905085030 59 0 0.0 0.0 0.00 0.00 0.00 88 1014.9
20260905084610 59 0 0.0 0.0 0.00 0.00 0.00 87 1015.0
20260905084030 59 0 0.0 0.0 0.00 0.00 0.00 87 1015.1
20260905083529 59 0 0.0 0.0 0.00 0.00 0.00 87 1015.1
20260905083049 59 0 0.0 0.0 0.00 0.00 0.00 87 1015.0
20260905082527 59 0 0.0 0.0 0.00 0.00 0.00 87 1015.1
20260905082027 59 0 0.0 0.0 0.00 0.00 0.00 87 1015.0
20260905081552 59 0 0.0 0.0 0.00 0.00 0.00 87 1015.1
20260905081030 59 0 0.0 0.0 0.00 0.00 0.00 87 1015.2
20260905080529 59 0 0.0 0.0 0.00 0.00 0.00 86 1015.2
20260905080044 60 0 0.0 0.0 0.00 0.00 0.00 86 1015.2
20260905075527 60 0 0.0 0.0 0.00 0.00 0.00 86 1015.2
20260905075029 60 0 0.0 0.0 0.00 0.00 0.00 85 1015.3
20260905074604 60 0 0.0 0.0 0.00 0.00 0.00 85 1015.3
20260905074027 60 0 0.0 0.0 0.00 0.00 0.00 85 1015.3
20260905073527 61 0 0.0 0.0 0.00 0.00 0.00 84 1015.2
20260905073046 61 0 0.0 0.0 0.00 0.00 0.00 84 1015.3
20260905072527 61 0 0.0 0.0 0.00 0.00 0.00 84 1015.3
20260905072028 61 0 0.0 0.0 0.00 0.00 0.00 83 1015.3
20260905071546 61 0 0.0 0.0 0.00 0.00 0.00 83 1015.3
20260905071030 62 0 0.0 0.0 0.00 0.00 0.00 83 1015.3
20260905070527 62 0 0.0 0.0 0.00 0.00 0.00 82 1015.3
20260905070105 62 0 0.0 0.0 0.00 0.00 0.00 82 1015.2
20260905065529 62 0 0.0 0.0 0.00 0.00 0.00 82 1015.1
20260905065027 63 0 0.0 0.0 0.00 0.00 0.00 81 1015.1
20260905064546 63 0 0.0 0.0 0.00 0.00 0.00 81 1015.1
20260905064026 63 0 0.0 0.0 0.00 0.00 0.00 82 1015.1
20260905063524 63 0 0.0 0.0 0.00 0.00 0.00 82 1015.1
20260905063050 63 0 0.0 0.0 0.00 0.00 0.00 82 1015.1
20260905062527 63 0 0.0 0.0 0.00 0.00 0.00 82 1015.1
20260905062027 63 0 0.0 0.0 0.00 0.00 0.00 82 1015.1
20260905061550 63 0 0.0 0.0 0.00 0.00 0.00 83 1015.1
20260905061026 63 0 0.0 0.0 0.00 0.00 0.00 83 1015.1
20260905060526 63 0 0.0 0.0 0.00 0.00 0.00 83 1015.2
20260905060054 63 0 0.0 0.0 0.00 0.00 0.00 84 1015.1
20260905055526 63 0 0.0 0.0 0.00 0.00 0.00 84 1015.1
20260905055027 63 0 0.0 0.0 0.00 0.00 0.00 84 1015.1
20260905054600 63 0 0.0 0.0 0.00 0.00 0.00 84 1015.1
20260905054031 63 0 0.0 0.0 0.00 0.00 0.00 83 1014.8
20260905053526 63 0 0.0 0.0 0.00 0.00 0.00 83 1014.9
20260905053046 63 0 0.0 0.0 0.00 0.00 0.00 83 1015.0
20260905052529 63 0 0.0 0.0 0.00 0.00 0.00 82 1015.0
20260905052030 63 0 0.0 0.0 0.00 0.00 0.00 82 1015.0
20260905051551 63 0 0.0 0.0 0.00 0.00 0.00 81 1015.0
20260905051027 63 0 0.0 0.0 0.00 0.00 0.00 81 1015.1
20260905050527 63 0 0.0 0.0 0.00 0.00 0.00 81 1015.1
20260905050049 64 0 0.0 0.0 0.00 0.00 0.00 81 1015.0
20260905045526 64 0 0.0 0.0 0.00 0.00 0.00 80 1015.1
20260905045030 64 0 0.0 2.0 0.00 0.00 0.00 80 1015.0
20260905044544 64 0 0.0 2.0 0.00 0.00 0.00 80 1015.0
20260905044026 64 0 0.0 0.0 0.00 0.00 0.00 81 1015.0
20260905043525 64 0 0.0 0.0 0.00 0.00 0.00 81 1015.0
20260905043054 64 0 0.0 0.0 0.00 0.00 0.00 81 1015.0
20260905042530 64 0 0.0 0.0 0.00 0.00 0.00 81 1014.9
20260905042027 64 0 0.0 0.0 0.00 0.00 0.00 81 1014.9
20260905041556 64 0 0.0 0.0 0.00 0.00 0.00 82 1014.7
20260905041028 64 0 0.0 0.0 0.00 0.00 0.00 82 1014.7
20260905040527 64 0 0.0 0.0 0.00 0.00 0.00 81 1014.7
20260905040045 64 0 0.0 0.0 0.00 0.00 0.00 80 1014.7
20260905035527 64 0 0.0 0.0 0.00 0.00 0.00 80 1014.6
20260905035029 64 0 0.0 0.0 0.00 0.00 0.00 80 1014.7
20260905034556 64 0 0.0 0.0 0.00 0.00 0.00 80 1014.7
20260905034028 64 0 0.0 0.0 0.00 0.00 0.00 79 1014.6
20260905033529 65 0 0.0 0.0 0.00 0.00 0.00 78 1014.5
20260905033051 65 0 0.0 2.0 0.00 0.00 0.00 78 1014.4
20260905032527 65 0 0.0 2.0 0.00 0.00 0.00 78 1014.3
20260905032030 65 89 0.0 2.0 0.00 0.00 0.00 77 1014.2
20260905031555 66 236 0.0 2.0 0.00 0.00 0.00 77 1014.1
20260905031029 66 91 0.0 3.0 0.00 0.00 0.00 77 1014.0
20260905030529 66 90 0.0 3.0 0.00 0.00 0.00 77 1013.9
20260905030056 66 0 1.0 3.0 0.00 0.00 0.00 77 1013.9
20260905025529 66 0 1.0 3.0 0.00 0.00 0.00 76 1013.9
20260905025027 67 82 0.0 3.0 0.00 0.00 0.00 75 1013.9
20260905024548 67 0 0.0 2.0 0.00 0.00 0.00 75 1013.9
20260905024027 67 0 0.0 2.0 0.00 0.00 0.00 74 1013.9
20260905023527 68 0 0.0 3.0 0.00 0.00 0.00 74 1013.8
20260905023045 68 212 0.0 3.0 0.00 0.00 0.00 73 1013.8
20260905022530 68 122 0.0 2.0 0.00 0.00 0.00 72 1013.7
20260905022033 69 0 0.0 1.0 0.00 0.00 0.00 70 1013.8
20260905021544 69 0 0.0 3.0 0.00 0.00 0.00 70 1013.7
20260905021030 69 0 0.0 3.0 0.00 0.00 0.00 68 1013.7
20260905020529 70 0 0.0 5.0 0.00 0.00 0.00 68 1013.7
20260905020059 70 0 0.0 5.0 0.00 0.00 0.00 67 1013.8
20260905015526 70 210 1.0 3.0 0.00 0.00 0.00 67 1013.7
20260905015028 71 249 0.0 3.0 0.00 0.00 0.00 66 1013.7
20260905014553 71 0 0.0 3.0 0.00 0.00 0.00 66 1013.8
20260905014027 72 0 0.0 4.0 0.00 0.00 0.00 65 1013.8
20260905013530 72 203 1.0 4.0 0.00 0.00 0.00 63 1013.7
20260905013045 73 290 0.0 4.0 0.00 0.00 0.00 62 1013.7
20260905012547 73 204 1.0 7.0 0.00 0.00 0.00 61 1013.6
20260905012027 74 0 1.0 7.0 0.00 0.00 0.00 60 1013.6
20260905011544 75 198 0.0 6.0 0.00 0.00 0.00 58 1013.6
20260905011028 76 0 1.0 6.0 0.00 0.00 0.00 56 1013.7
20260905010525 76 169 1.0 6.0 0.00 0.00 0.00 56 1013.5
20260905010053 76 107 2.0 6.0 0.00 0.00 0.00 55 1013.6
20260905005528 77 223 1.0 5.0 0.00 0.00 0.00 55 1013.5
20260905005029 77 65 1.0 5.0 0.00 0.00 0.00 55 1013.5
20260905004548 77 4 2.0 6.0 0.00 0.00 0.00 55 1013.6
20260905004030 77 106 2.0 6.0 0.00 0.00 0.00 54 1013.5
20260905003530 78 245 1.0 5.0 0.00 0.00 0.00 55 1013.4
20260905003048 78 63 1.0 4.0 0.00 0.00 0.00 55 1013.4
20260905002525 78 146 1.0 4.0 0.00 0.00 0.00 55 1013.4
20260905002027 78 219 2.0 6.0 0.00 0.00 0.00 54 1013.3
20260905001544 78 113 2.0 7.0 0.00 0.00 0.00 55 1013.2
20260905001025 78 82 2.0 8.0 0.00 0.00 0.00 54 1013.1
20260905000528 79 210 3.0 8.0 0.00 0.00 0.00 52 1013.1
20260905000057 80 162 1.0 4.0 0.00 0.00 0.00 52 1013.1
20260904235527 80 215 1.0 4.0 0.00 0.00 0.00 52 1013.1
20260904235026 80 233 1.0 6.0 0.00 0.00 0.00 52 1013.1
20260904234552 80 288 1.0 6.0 0.00 0.00 0.00 52 1013.1
20260904234026 80 173 1.0 6.0 0.00 0.00 0.00 51 1013.0
20260904233527 81 102 1.0 6.0 0.00 0.00 0.00 51 1013.1
20260904233055 81 177 1.0 6.0 0.00 0.00 0.00 50 1013.1
20260904232527 81 277 1.0 5.0 0.00 0.00 0.00 51 1013.1
20260904232031 80 92 2.0 5.0 0.00 0.00 0.00 50 1013.2
20260904231545 81 99 1.0 7.0 0.00 0.00 0.00 51 1013.2
20260904231025 81 225 3.0 7.0 0.00 0.00 0.00 49 1013.3
20260904230527 82 226 1.0 7.0 0.00 0.00 0.00 48 1013.2
20260904230103 81 96 3.0 7.0 0.00 0.00 0.00 49 1013.4
20260904225529 82 108 3.0 7.0 0.00 0.00 0.00 48 1013.4
20260904225029 82 201 1.0 6.0 0.00 0.00 0.00 49 1013.3
20260904224606 82 264 1.0 6.0 0.00 0.00 0.00 49 1013.4
20260904224028 82 216 2.0 6.0 0.00 0.00 0.00 48 1013.4
20260904223526 82 235 2.0 3.0 0.00 0.00 0.00 49 1013.4
20260904223045 83 203 0.0 6.0 0.00 0.00 0.00 50 1013.4